Weather Roundup
Issued by NWS

Home | Current Version | Previous Version | Graphics & Text | Print | Product List | Glossary Off
Versions: 1 2 3 4 5 6 7 8 9 10 11 12 13 14 15 16 17 18 19 20 21 22 23 24 25 26 27 28 29 30 31 32 33 34 35 36 37 38 39 40 41 42 43 44 45 46 47 48 49 50

673
NZUS93 KARX 030410
HRRWXR

CURRENT HOURLY OBSERVATIONS ACROSS
MUCH OF THE UPPER MISSISSIPPI VALLEY
NATIONAL WEATHER SERVICE LA CROSSE WI
1000 PM CST FRI DEC 02 2016


...SOUTHEAST MINNESOTA...


CITY           SKY/WX    TMP DP  RH WIND       PRES   REMARKS
ROCHESTER      CLOUDY    28  23  81 W8        30.30S WCI  20
ROCHESTER/MAYO CLOUDY    29  22  76 W9        30.30F WCI  20
WINONA         CLOUDY    34  25  69 W6        30.32S WCI  29
AUSTIN         CLOUDY    28  21  74 W6        30.31R WCI  22
ALBERT LEA     CLOUDY    32  25  74 NW3       30.30S
DODGE CENTER   CLOUDY    27  21  80 W7        30.30S WCI  19
PRESTON        CLOUDY    27  22  79 NW7       30.30F WCI  20
OWATONNA       CLOUDY    28  21  74 NW7       30.30S WCI  21
FARIBAULT      CLOUDY    28  21  74 CALM      30.31S
$$

...ELSEWHERE IN MINNESOTA...


CITY           SKY/WX    TMP DP  RH WIND       PRES   REMARKS
MINNEAPOLIS    CLOUDY    31  23  72 SW6       30.30S WCI  25
INTNL FALLS    NOT AVBL
DULUTH         NOT AVBL
RED WING       CLOUDY    30  21  69 W7        30.30R WCI  23
REDWOOD FALLS  CLOUDY    29  20  69 NW6       30.31S WCI  23
MANKATO        NOT AVBL
WORTHINGTON    NOT AVBL
FAIRMONT       NOT AVBL
$$

...SOUTHWEST WISCONSIN...


CITY           SKY/WX    TMP DP  RH WIND       PRES   REMARKS
LA CROSSE      CLOUDY    34  22  61 W8        30.31S WCI  27
PRAIRIE DU CHI CLOUDY    32  21  64 NW7       30.33S WCI  26
BOSCOBEL       CLOUDY    33  22  63 CALM      30.33S
LONE ROCK      CLOUDY    32  23  69 W6        30.32S WCI  26
PLATTEVILLE    CLOUDY    31  25  77 NW6       30.32S WCI  26
FORT MC COY    CLOUDY    32  25  74 W5        30.31R WCI  27
CAMP DOUGLAS   CLOUDY    31  24  74 NW7       30.29R WCI  24
MAUSTON-NEW LI CLOUDY    32  25  74 W6        30.29R WCI  26
VIROQUA        CLOUDY    30  24  78 W3        30.28S
WIS DELLS      CLOUDY    30  23  74 W3        30.30R
$$

...ELSEWHERE IN WISCONSIN...


CITY           SKY/WX    TMP DP  RH WIND       PRES   REMARKS
MILWAUKEE      CLOUDY    34  23  64 NW7       30.30R WCI  28
MADISON        CLOUDY    31  21  66 W3        30.31R
GREEN BAY      CLOUDY    35  29  78 W9        30.26R WCI  28
EAU CLAIRE     CLOUDY    32  22  66 W5        30.28S WCI  27
BLACK RVR FLS  CLOUDY    32  24  71 W3        30.29S
MEDFORD        CLOUDY    28  22  79 NW6       30.24R WCI  21
WAUSAU         CLOUDY    30  23  75 W8        30.24R WCI  22
WIS RAPIDS     CLOUDY    31  23  72 NW7       30.28S WCI  24
MARSHFIELD     CLOUDY    29  22  75 W5        30.25R WCI  24
RICE LAKE      CLOUDY    30  24  78 CALM      30.29R
$$

...NORTHEAST IOWA...


CITY           SKY/WX    TMP DP  RH WIND       PRES   REMARKS
WATERLOO       NOT AVBL
DUBUQUE        CLOUDY    30  23  75 NW8       30.32S WCI  22
DECORAH        CLOUDY    30  23  74 VRB5      30.30S WCI  25
MASON CITY     NOT AVBL
CHARLES CITY   CLOUDY    30  25  80 W10       30.33S WCI  21
OELWEIN        CLOUDY    30  25  80 NW9       30.33R WCI  22
$$

...ELSEWHERE IN IOWA...


CITY           SKY/WX    TMP DP  RH WIND       PRES   REMARKS
DES MOINES     CLOUDY    37  32  82 NE3       30.34S
IOWA CITY      CLOUDY    35  26  69 NW5       30.36F WCI  31
FORT DODGE     CLOUDY    32  25  74 CALM      30.33F
MARSHALLTOWN   CLOUDY    32  29  88 W3        30.33S
CEDAR RAPIDS   CLOUDY    31  29  92 W3        30.34R
$$

...NORTHERN ILLINOIS...


CITY           SKY/WX    TMP DP  RH WIND       PRES   REMARKS
CHICAGO-OHARE  CLOUDY    35  24  64 NW8       30.31R WCI  29
CHICAGO-MIDWAY CLOUDY    36  24  62 W9        30.32R WCI  29
MOLINE         CLOUDY    35  26  69 NW7       30.34S WCI  29
ROCKFORD       NOT AVBL
PEORIA         NOT AVBL
$$

NOTE: "FAIR" INDICATES FEW OR NO CLOUDS BELOW 12,000 FEET WITH NO
SIGNIFICANT WEATHER AND/OR OBSTRUCTIONS TO VISIBILITY. WIND
SPEEDS ARE IN MILES-PER-HOUR.




USA.gov is the U.S. government's official web portal to all federal, state and local government web resources and services.